Wright-Patt AFB, OH

10:55 AM EDT on September 26, 2017 (GMT -0400)
Wright-Patterson Air Force Base

Weather History for KFFO - January, 2014

Change the Weather History Date:

Sunday, January 26, 2014

  Actual Average Record
Temperature  
Mean Temperature 21 °F -  
Max Temperature 39 °F 34 °F 51 °F (2002)
Min Temperature 3 °F 17 °F -2 °F (2000)
Degree Days  
Heating Degree Days 44    
Moisture  
Dew Point 11 °F    
Average Humidity 72    
Maximum Humidity 85    
Minimum Humidity 55    
Precipitation  
Precipitation 0.03 in - - ()
Snow  
Snow 0.00 in - - ()
Snow Depth 4.00 in    
Sea Level Pressure  
Sea Level Pressure 29.69 in    
Wind  
Wind Speed 9 mph (South)    
Max Wind Speed 23 mph    
Max Gust Speed 31 mph    
Visibility 8 miles    
Events Snow    
Averages and records for this station are not official NWS values.
T = Trace of Precipitation, MM = Missing Value Source: NWS Daily Summary

Daily Weather History Graph

Daily Weather History Graph

Search for Another Location

Airport or City:

Trip Planner

Search our weather history database for the weather conditions in past years. The results will help you decide how hot, cold, wet, or windy it might be!

Date:

Astronomy

Jan. 26, 2014 Rise Set
Actual Time 7:49 AM EST 5:48 PM EST
Civil Twilight 7:20 AM EST 6:17 PM EST
Nautical Twilight 6:47 AM EST 6:50 PM EST
Astronomical Twilight 6:15 AM EST 7:22 PM EST
Moon 3:25 AM EST 1:37 PM EST
Length of Visible Light 10h 57m
Length of Day
9h 59m
Waning Crescent, 24% of the Moon is Illuminated
Jan 26
Waning Crescent
Jan 30
New
Feb 6
First Quarter
Feb 14
Full
Feb 22
Last Quarter

Hourly Weather History & Observations

Time (EST) Temp. Windchill Dew Point Humidity Pressure Visibility Wind Dir Wind Speed Gust Speed Precip Events Conditions
12:58 AM 7.9 °F -3.5 °F -1.8 °F 65% 29.93 in 10.0 mi WSW 6.9 mph - N/A   Clear
1:58 AM 5.4 °F -6.5 °F -2.7 °F 69% 29.92 in 10.0 mi SW 6.9 mph - N/A   Clear
2:58 AM 3.9 °F -11.3 °F -3.3 °F 72% 29.92 in 10.0 mi SW 10.4 mph - N/A   Clear
3:58 AM 6.1 °F -6.8 °F -1.5 °F 71% 29.92 in 10.0 mi SSW 8.1 mph - N/A   Scattered Clouds
4:58 AM 6.8 °F -7.8 °F -2.7 °F 65% 29.86 in 10.0 mi South 10.4 mph - N/A   Partly Cloudy
5:58 AM 8.1 °F -6.2 °F -1.7 °F 65% 29.83 in 10.0 mi South 10.4 mph - N/A   Partly Cloudy
6:58 AM 9.7 °F -3.3 °F -0.4 °F 64% 29.81 in 10.0 mi South 9.2 mph - N/A   Clear
7:25 AM 10.4 °F 0.8 °F 1.4 °F 67% 29.73 in 0.8 mi SSE 5.8 mph - N/A Snow Snow
7:38 AM 10.4 °F 0.8 °F 3.2 °F 73% 29.72 in 0.8 mi SSE 5.8 mph - N/A Snow Snow
7:58 AM 9.9 °F 0.2 °F 5.5 °F 83% 29.78 in 0.8 mi South 5.8 mph - 0.00 in Snow Snow
8:08 AM 10.4 °F 0.8 °F 6.8 °F 85% 29.72 in 0.8 mi SSE 5.8 mph - N/A Snow Snow
8:28 AM 10.4 °F 0.8 °F 6.8 °F 85% 29.70 in 1.2 mi ESE 5.8 mph - N/A Snow Light Snow
8:38 AM 10.4 °F 0.8 °F 6.8 °F 85% 29.68 in 3.0 mi ESE 5.8 mph - N/A Snow Light Snow
8:58 AM 11.1 °F 0.4 °F 7.0 °F 83% 29.74 in 1.5 mi SSE 6.9 mph - 0.02 in Snow Light Snow
9:06 AM 12.2 °F 0.7 °F 6.8 °F 79% 29.68 in 2.0 mi SSE 8.1 mph - N/A Snow Light Snow
9:22 AM 12.2 °F 1.7 °F 8.6 °F 85% 29.67 in 10.0 mi South 6.9 mph - N/A Snow Light Snow
9:32 AM 12.2 °F 1.7 °F 8.6 °F 85% 29.66 in 10.0 mi South 6.9 mph - N/A   Mostly Cloudy
9:52 AM 14.0 °F 2.9 °F 8.6 °F 79% 29.67 in 10.0 mi SSE 8.1 mph - N/A Snow Light Snow
9:58 AM 13.5 °F 3.3 °F 8.1 °F 79% 29.71 in 10.0 mi SSE 6.9 mph - 0.01 in Snow Light Snow
10:08 AM 14.0 °F 2.0 °F 8.6 °F 79% 29.65 in 8.0 mi SSE 9.2 mph - N/A Snow Light Snow
10:28 AM 14.0 °F 3.9 °F 8.6 °F 79% 29.66 in 10.0 mi SSE 6.9 mph - N/A   Mostly Cloudy
10:58 AM 15.4 °F 2.3 °F 8.4 °F 74% 29.70 in 10.0 mi SSE 11.5 mph - 0.00 in   Mostly Cloudy
11:58 AM 18.9 °F 7.2 °F 8.2 °F 63% 29.65 in 10.0 mi SSE 10.4 mph - N/A   Overcast
12:58 PM 25.9 °F 12.1 °F 12.2 °F 56% 29.59 in 10.0 mi SSW 19.6 mph - N/A   Mostly Cloudy
1:58 PM 29.8 °F 19.3 °F 15.3 °F 55% 29.59 in 10.0 mi SSW 13.8 mph - N/A   Overcast
2:58 PM 34.2 °F 25.2 °F 21.0 °F 59% 29.58 in 10.0 mi SW 12.7 mph - N/A   Overcast
3:58 PM 37.8 °F 28.0 °F 24.6 °F 59% 29.57 in 10.0 mi SW 18.4 mph - N/A   Overcast
4:58 PM 38.7 °F 29.1 °F 26.8 °F 62% 29.58 in 10.0 mi SW 18.4 mph - N/A   Overcast
5:28 PM 39.2 °F 28.7 °F 26.6 °F 61% 29.55 in 10.0 mi SW 23.0 mph 31.1 mph N/A   Mostly Cloudy
5:58 PM 39.0 °F 29.0 °F 27.1 °F 62% 29.60 in 10.0 mi SW 20.7 mph - N/A   Scattered Clouds
6:58 PM 34.9 °F 27.7 °F 26.4 °F 71% 29.62 in 10.0 mi SW 9.2 mph - N/A   Partly Cloudy
7:58 PM 31.3 °F 25.6 °F 24.6 °F 76% 29.62 in 10.0 mi SSW 5.8 mph - N/A   Partly Cloudy
8:58 PM 35.2 °F 31.2 °F 26.2 °F 70% 29.62 in 10.0 mi SW 4.6 mph - N/A   Overcast
9:58 PM 33.8 °F 26.4 °F 26.8 °F 75% 29.59 in 10.0 mi SSW 9.2 mph - N/A   Scattered Clouds
10:58 PM 37.9 °F 30.0 °F 28.8 °F 70% 29.57 in 10.0 mi SSW 12.7 mph - N/A   Overcast
11:58 PM 38.1 °F 31.2 °F 29.1 °F 70% 29.56 in 10.0 mi SW 10.4 mph - N/A   Mostly Cloudy